Miscellaneous Local Product
Issued by NWS North Platte, NE

Home | Current Version | Previous Version | Text Only | Print | Product List | Glossary On
Versions: 1 2 3 4 5 6 7 8 9 10 11 12 13 14 15 16 17 18 19 20 21 22 23 24 25 26 27 28 29 30 31 32 33 34 35 36 37 38 39 40 41 42 43 44 45 46 47 48 49 50
000
AXUS43 KLBF 020410
MISLBF


WESTERN AND NORTH CENTRAL NEBRASKA HOURLY WEATHER ROUNDUP
NATIONAL WEATHER SERVICE NORTH PLATTE NE
1100 PM CDT WED JUL 01 2015

***STATIONS NOT REPORTING VARIABLES SUCH AS SKY/WEATHER OR
PRESSURE ARE PROVIDED BY THE NEBRASKA DEPARTMENT OF
ROADS...RAWS...AND APRS NETWORKS...AND ARE NOT UNDER
NATIONAL WEATHER SERVICE QUALITY CONTROL***

...OBSERVATIONS IN AND NEAR THE EASTERN PANHANDLE OF NEBRASKA...

CITY           SKY/WX    TMP DP  RH WIND       PRES   REMARKS
PINE RIDGE     CLOUDY    68  64  87 E5        30.02R
CHADRON        PTCLDY    72  62  71 E5        30.00R
ALLIANCE       MOCLDY    68  61  78 SW6       30.05R
SIDNEY         CLOUDY    72  58  61 N8        30.10R
WHITECLAY        N/A     72  62  71 E3          N/A
CRESCENT LAKE    N/A     75  57  53 CALM        N/A
BIG SPRINGS      N/A     74  62  66 CALM        N/A
$$

...OBSERVATIONS IN NORTH CENTRAL NEBRASKA...

CITY           SKY/WX    TMP DP  RH WIND       PRES   REMARKS
VALENTINE      CLEAR     67  64  90 NW5       29.98R
THEDFORD       PTCLDY    72  65  80 CALM      30.00R
AINSWORTH      MOCLDY    69  64  82 CALM      29.99R
O`NEILL        CLOUDY    72  68  88 SE9       29.96R
BROKEN BOW     PTCLDY    70  66  87 CALM      29.96R
VALENTINE NWR    N/A     71  65  83 CALM        N/A
SPRINGVIEW       N/A     71  67  87 E3          N/A
HALSEY           N/A     73  62  68 CALM        N/A
BREWSTER         N/A     72  66  80 CALM        N/A
ROSE             N/A     83  82  99 N7          N/A  HX  98
NEWPORT          N/A     70  70 100 E5          N/A
SARGENT          N/A     67  65  95 CALM        N/A
CHAMBERS         N/A     71  67  87 E3          N/A
EWING            N/A     69  67  92 E5          N/A
$$

...OBSERVATIONS IN SOUTHWEST NEBRASKA AND FAR NORTHEAST COLORADO...

CITY           SKY/WX    TMP DP  RH WIND       PRES   REMARKS
WRAY           MOCLDY    74  58  58 W9        30.06R
HOLYOKE        FAIR      81  55  41 N3        30.05R
IMPERIAL       CLOUDY    73  58  59 E6        30.00R
OGALLALA       CLOUDY    75  60  59 CALM      30.01R
NORTH PLATTE   PTCLDY    73  60  63 NE8       29.97R
MCCOOK         CLOUDY    80  66  62 E5        29.94R
LEXINGTON      MOCLDY    74  69  84 E7        29.97R
PAXTON           N/A     73  59  62 CALM        N/A
GOTHENBURG       N/A     76  64  65 CALM        N/A
CALLAWAY         N/A     72  64  74 NE5         N/A
$$

...NORTH PLATTE AREA...

CITY           SKY/WX    TMP DP  RH WIND       PRES   REMARKS
AIRPORT        PTCLDY    73  60  63 NE8       29.97R
DOWNTOWN         N/A     77  61  57 NE5         N/A
HILLCREST        N/A     76  61  59 NE12        N/A
$$

...SOME WEATHER OBSERVATIONS FROM AROUND THE REGION...

CITY           SKY/WX    TMP DP  RH WIND       PRES   REMARKS
DENVER         PTCLDY    65  55  70 S13       30.17S
LARAMIE        PTCLDY    57  53  86 S9        30.26F
CHEYENNE       MOCLDY    60  56  86 W8        30.21F
SCOTTSBLUFF    CLOUDY    68  66  93 SE6       30.05S
RAPID CITY     PTCLDY    68  64  87 E8        30.02R
PIERRE         MOCLDY    69  65  86 E5        29.94R
WINNER         FAIR      72  65  78 SE7       29.96R
SIOUX FALLS    PTCLDY    64  55  72 E7        29.98R
OMAHA          PTCLDY    72  66  81 E5        29.92R
GRAND ISLAND   MOCLDY    75  69  81 E9        29.93R
KANSAS CITY    PTCLDY    77  73  87 NE9       29.84R
WICHITA        PTCLDY    81  66  60 CALM      29.82R
HAYS           CLOUDY    79  61  53 NE6       29.91R
LIBERAL        CLOUDY    84  57  39 E13       29.98R
GOODLAND       CLOUDY    72  60  66 W16       30.05R
$$



USA.gov is the U.S. government's official web portal to all federal, state and local government web resources and services.